Theta_e
295 294 295 295 297 296 297 297 295 297 298 298 298 298 298 297 297 298 302 300 302 306 304 306 305 307 306 305 305 303 301 301 302 306 305 306 309 303 308 309 305 305 305 306 305 307 308 298 301 302 298 296 295 297
293 295 294 295 296 298 297 298 297 297 297 297 297 297 297 296 297 299 301 299 301 304 302 301 301 301 302 303 304 303 305 304 307 307 307 308 308 308 308 307 305 307 307 309 304 304 297 296 295 296 296 295 294 294
299 298 298 298 297 296 297 296 296 296 296 296 297 296 296 297 298 298 301 301 301 303 303 301 301 300 301 302 302 303 304 305 307 307 309 308 307 307 308 308 306 305 304 306 303 299 297 296 294 294 293 293 292 292
296 297 297 297 296 296 295 296 295 296 296 296 297 297 298 297 297 298 301 301 302 302 304 301 301 301 301 302 304 304 305 304 306 306 306 308 307 307 306 305 307 304 303 304 300 298 296 295 294 292 291 291 290 290
295 294 295 295 295 295 295 295 297 296 295 296 297 297 297 296 297 300 301 302 301 304 302 301 301 301 301 302 303 304 305 307 307 306 306 306 304 304 304 304 303 300 301 304 304 299 298 295 293 292 291 290 290 289
295 294 294 293 294 295 295 296 296 295 296 297 296 296 296 297 300 301 305 301 300 299 302 302 301 301 301 302 303 304 305 306 306 306 305 304 304 306 307 305 298 297 298 299 298 296 296 294 293 291 290 290 289 288
295 294 294 293 294 295 295 296 295 295 295 296 296 296 297 299 300 302 301 301 301 301 304 302 301 301 301 302 303 303 304 305 305 305 304 304 304 304 307 305 298 297 296 295 295 294 293 293 292 291 290 289 289 288
294 293 293 293 294 294 294 295 295 296 295 296 297 297 297 298 298 299 297 299 301 303 302 304 302 301 302 303 303 303 303 304 305 305 304 304 304 304 302 298 297 296 295 294 294 295 294 292 291 290 289 289 289 288
294 294 293 293 293 293 294 295 294 294 296 297 298 299 300 301 301 298 297 299 301 303 305 303 304 302 302 302 302 303 304 306 304 305 304 304 305 305 300 296 295 295 295 294 293 292 291 291 290 290 290 290 289 288
293 292 294 295 295 294 294 294 294 294 296 298 299 299 299 299 296 300 303 305 303 302 303 305 303 304 302 303 305 304 305 306 305 304 303 305 301 298 298 297 296 295 294 293 292 292 291 291 290 290 290 290 288 287
293 292 292 293 294 294 294 294 294 295 297 299 301 301 298 298 301 303 306 303 302 302 302 303 303 305 303 304 304 304 305 304 304 304 303 304 302 297 297 296 295 295 294 294 294 293 293 292 291 291 290 289 288 287
293 292 291 291 291 291 292 294 296 298 298 299 299 299 300 301 302 302 301 301 301 301 303 305 304 303 303 303 302 303 302 303 305 303 303 304 299 297 295 295 294 294 294 294 294 293 293 291 290 290 289 288 285 281
292 291 292 293 292 293 294 295 295 297 298 299 299 299 301 302 302 302 300 302 302 302 304 305 304 303 302 303 303 302 303 304 302 303 303 302 297 295 295 293 293 294 294 294 294 292 291 290 288 287 285 282 280 279
291 292 293 292 291 290 292 293 294 297 299 301 300 299 302 301 301 302 304 303 302 304 305 303 301 301 302 301 302 301 301 302 303 303 304 299 295 294 293 292 292 291 291 291 290 289 288 286 284 283 283 281 279 279
293 292 291 291 290 290 293 294 296 298 298 300 299 300 299 299 299 299 302 303 303 304 304 303 301 301 301 301 301 300 301 302 302 304 300 297 294 293 292 290 289 289 289 288 286 285 284 283 282 281 280 279 278 278
292 292 292 291 291 291 294 296 297 297 298 297 298 300 301 300 299 300 302 304 303 304 305 303 302 302 302 301 301 301 301 302 301 298 295 294 292 291 290 289 288 287 287 286 284 283 282 281 281 281 279 278 278 277
293 292 291 291 293 294 295 297 297 298 297 298 299 298 300 299 299 299 300 303 302 303 303 302 301 300 301 301 301 303 303 300 297 295 294 293 292 290 289 287 286 286 285 284 283 282 281 281 280 279 278 277 277 277
293 292 290 291 294 295 295 296 297 297 297 299 298 298 297 297 298 300 301 302 302 302 302 301 300 300 302 302 303 299 296 295 294 293 293 292 290 289 287 286 285 285 284 283 282 282 281 280 281 281 279 278 278 278
291 291 291 292 293 295 295 296 297 295 297 297 297 297 297 298 297 297 299 301 301 300 301 300 301 302 302 302 299 297 295 295 292 291 290 290 288 288 286 285 284 284 283 283 282 282 282 282 282 280 280 280 280 280
291 292 292 294 294 294 294 296 295 296 297 295 296 297 297 296 297 299 300 299 300 300 299 301 302 300 299 298 298 297 295 294 293 290 289 288 287 286 285 284 284 283 283 283 283 283 283 283 282 282 281 282 282 282
293 293 293 294 294 294 294 295 294 295 294 294 294 295 294 296 297 298 298 297 300 299 301 299 297 295 295 295 295 295 294 294 294 294 291 288 286 286 285 286 284 284 285 285 284 284 283 283 282 282 283 284 282 280
293 293 294 292 294 293 293 294 294 294 296 294 295 295 296 295 296 297 296 296 298 299 299 297 296 295 295 294 294 294 293 291 290 290 290 288 288 287 286 285 285 285 285 285 284 284 284 283 283 283 282 280 278 278
293 293 293 293 293 293 292 293 294 294 295 295 295 296 295 295 295 295 295 297 298 297 296 295 295 293 293 292 291 291 291 291 291 290 289 289 288 287 286 285 285 286 286 285 285 285 284 283 282 281 280 279 277 276
291 291 292 293 293 292 292 294 294 295 295 296 296 296 295 294 294 296 298 300 295 294 294 293 293 292 292 292 292 290 290 290 288 288 288 287 287 286 285 285 285 286 285 285 285 283 282 282 281 280 279 278 277 277
292 291 293 292 293 294 293 294 294 294 294 294 295 296 295 294 297 299 299 298 296 293 292 292 292 293 294 293 291 288 287 289 289 287 287 287 286 285 285 285 285 286 285 285 283 282 282 281 280 280 279 278 277 276
292 292 292 292 293 292 292 293 293 294 294 295 295 295 294 295 297 298 298 295 293 292 292 293 293 293 292 292 291 289 288 288 288 287 286 286 285 285 285 285 285 285 284 284 283 282 281 281 280 279 279 277 276 274
291 292 292 291 292 292 293 293 293 293 294 294 295 295 295 296 296 297 292 290 290 289 289 290 291 292 291 289 288 287 287 286 287 286 285 284 285 285 285 285 285 283 283 283 283 281 281 280 279 277 276 274 274 273
292 292 292 292 292 292 292 293 293 293 293 294 295 295 295 295 297 293 291 287 287 286 286 287 288 288 288 286 285 284 283 283 282 282 281 281 281 282 283 284 283 282 282 282 282 281 280 278 277 275 274 273 272 271
292 292 292 291 291 292 292 293 293 293 294 295 295 294 295 294 291 290 288 286 286 286 286 286 285 285 285 284 284 283 282 282 282 283 283 282 281 280 280 280 281 280 280 280 280 279 278 276 275 274 272 270 269 268
292 293 291 292 291 292 294 293 294 291 291 291 291 293 292 291 287 286 286 286 286 286 287 287 285 285 284 284 284 283 283 284 285 285 285 284 282 279 279 278 277 277 277 276 275 274 274 273 271 269 268 267 266 265
292 292 293 293 293 294 291 289 288 287 288 289 290 290 292 290 288 285 285 285 286 286 286 286 285 285 285 285 284 283 283 282 282 282 284 282 279 278 278 277 276 275 274 273 272 271 269 269 268 267 267 266 265 264
291 291 293 293 294 289 288 289 290 289 291 289 290 289 289 288 290 286 279 281 282 283 283 285 285 284 284 285 284 284 283 281 280 280 280 279 278 277 276 275 274 273 272 271 270 270 270 269 269 268 265 264 264 263
289 290 289 290 291 290 290 289 290 290 290 289 290 290 289 290 291 281 277 277 279 281 284 283 284 283 283 282 282 281 280 279 279 279 278 277 276 275 274 273 272 272 271 271 270 270 269 268 266 265 265 263 262 261
Wind_Speed
16 19 22 22 22 20 21 19 19 18 22 24 24 24 30 28 25 13 3 11 5 3 9 5 6 13 12 9 8 12 6 4 5 6 5 3 1 4 4 2 6 8 6 6 7 5 8 9 3 3 4 5 6 8
22 24 22 23 22 21 19 22 21 20 21 23 22 21 24 28 20 14 3 10 5 2 9 15 17 11 13 12 8 11 2 11 5 5 2 3 2 1 5 5 4 2 2 2 5 3 4 5 5 4 5 6 6 8
25 21 19 27 26 28 27 24 20 17 22 23 18 24 26 24 18 14 7 8 16 8 8 6 9 17 14 15 12 5 5 3 2 2 2 2 2 3 4 3 4 3 4 2 7 5 4 6 7 7 8 9 8 9
25 30 34 35 30 27 24 20 14 14 17 21 17 25 25 20 15 15 12 17 12 3 4 7 11 14 9 10 10 9 11 4 6 4 2 2 2 3 2 3 3 3 3 7 5 6 6 7 8 8 9 9 9 9
27 26 27 27 25 23 22 16 11 14 15 22 20 18 22 17 14 12 7 1 6 1 5 7 13 12 12 11 13 13 11 8 5 3 3 2 3 3 1 3 4 4 4 2 3 9 7 8 8 9 8 8 9 10
26 24 25 24 24 24 17 14 15 14 12 14 19 18 19 19 17 13 2 9 19 27 6 4 6 7 9 11 10 6 3 3 3 2 3 2 0 2 4 3 4 3 2 3 4 9 12 11 10 9 9 9 9 10
24 24 24 22 19 18 17 14 15 11 17 22 22 25 28 18 7 1 4 7 3 9 4 5 4 3 3 5 6 5 3 2 2 4 2 2 3 2 2 3 7 5 7 9 11 13 9 10 7 9 12 12 13 12
24 20 19 19 18 18 18 17 19 23 25 23 23 21 17 18 15 7 10 7 2 1 3 3 4 4 3 4 3 2 3 1 3 2 4 3 3 2 3 8 8 7 8 6 3 3 9 12 12 11 14 14 10 9
21 18 19 19 18 19 19 19 19 20 23 23 19 13 5 3 4 4 7 6 5 2 3 3 5 4 2 3 4 1 1 2 2 2 2 1 3 2 4 10 10 10 5 7 10 11 11 11 11 10 10 10 9 8
18 20 20 19 18 17 16 14 14 13 13 11 6 5 3 3 9 1 1 2 3 2 4 3 5 3 5 3 2 2 2 3 3 2 2 2 3 4 6 9 9 7 10 11 11 9 10 10 10 10 9 8 10 9
19 19 18 17 15 13 11 9 9 7 7 4 2 2 4 3 1 1 2 1 2 3 3 5 6 6 3 3 3 2 1 1 3 3 3 3 4 5 8 7 8 7 9 10 8 10 8 10 7 8 8 10 11 12
21 18 17 15 13 11 9 8 7 6 3 4 10 7 3 2 1 3 2 0 1 3 3 6 7 6 2 1 3 3 2 2 3 2 1 3 3 10 9 8 6 5 7 6 8 8 9 11 12 10 10 11 13 17
19 18 17 19 18 14 12 13 14 11 7 6 5 4 1 3 2 2 3 2 3 2 3 5 5 2 2 4 2 2 1 2 1 1 2 3 7 7 8 8 7 7 7 8 9 12 14 14 14 16 15 16 17 17
18 18 17 15 16 16 12 7 9 7 4 2 2 4 3 3 4 4 5 6 3 4 8 7 3 2 2 3 1 2 2 2 2 3 3 5 7 7 7 7 7 8 8 9 12 15 15 16 15 16 15 15 17 15
19 17 15 15 13 14 13 11 10 7 4 3 4 4 4 3 4 2 2 4 5 6 6 5 3 3 2 2 1 3 2 3 2 3 2 5 8 8 8 7 7 7 7 7 12 12 14 14 14 14 13 13 14 15
11 11 15 14 13 12 9 8 9 6 3 4 6 3 5 6 5 3 3 3 4 4 3 3 3 2 1 3 2 3 2 2 3 2 3 6 8 7 7 6 7 9 10 11 12 13 13 13 13 14 13 13 13 14
11 6 12 13 11 12 10 5 5 4 3 3 3 2 4 6 4 2 3 3 1 2 2 2 2 3 1 2 3 4 3 3 4 4 3 5 8 8 7 9 10 10 12 12 13 13 13 14 16 15 14 12 13 13
13 9 13 14 8 5 6 7 3 4 5 4 4 3 4 3 2 2 2 4 3 2 2 2 1 2 0 2 3 2 3 4 4 4 4 6 8 11 11 11 10 11 12 12 13 14 14 14 14 13 15 15 14 13
12 13 14 12 8 4 3 4 4 3 4 2 2 3 3 2 3 3 2 4 3 4 2 1 1 2 2 3 4 4 5 3 5 5 5 9 11 11 12 12 11 11 12 13 14 13 14 14 13 15 15 15 13 13
9 15 13 14 11 3 3 3 5 4 3 2 3 3 3 2 1 1 3 3 3 1 1 2 3 2 2 3 3 4 4 5 6 6 5 5 9 12 12 12 11 12 13 13 13 14 13 12 14 14 13 12 13 11
8 11 13 10 6 10 4 3 3 2 3 3 1 1 1 0 1 1 1 1 1 2 2 3 3 2 5 5 6 9 6 6 3 2 6 6 10 11 11 11 14 12 11 12 11 11 11 12 13 12 11 12 15 16
6 11 7 9 5 4 4 7 2 1 2 3 3 2 1 2 2 1 2 1 1 2 2 2 3 5 5 5 5 7 8 9 9 10 13 16 6 7 9 12 11 10 11 11 12 12 12 14 16 14 16 16 15 14
7 8 5 7 3 4 3 6 2 0 2 3 2 3 2 1 1 1 1 3 2 2 2 4 6 11 8 8 8 8 6 6 7 8 10 9 10 11 12 12 11 11 11 12 14 13 15 17 18 17 16 17 16 15
8 4 4 4 5 3 1 1 1 2 2 1 2 1 3 1 2 2 2 3 3 3 4 5 6 4 5 5 4 5 4 10 12 6 9 11 9 9 11 10 10 10 11 14 15 16 18 16 18 17 16 16 15 13
2 4 3 4 2 1 1 2 3 2 1 1 1 1 2 1 2 1 2 3 4 3 4 4 4 3 2 3 5 6 1 4 9 6 5 9 11 11 10 9 10 9 15 17 17 17 16 17 15 15 16 15 15 14
3 3 3 2 1 2 1 1 0 1 2 1 1 2 0 1 2 3 2 2 2 2 3 2 2 2 3 5 5 5 5 4 11 8 8 9 10 10 9 8 9 9 14 15 18 18 17 15 17 15 14 15 16 16
1 2 1 1 2 1 1 1 2 1 1 2 2 2 2 3 3 3 3 2 2 3 4 5 6 3 6 11 10 11 8 7 7 12 12 11 9 6 10 11 11 11 13 15 17 19 18 18 18 17 16 14 13 13
1 1 1 1 0 0 1 1 2 2 2 2 3 4 2 2 2 2 3 4 6 6 5 4 6 7 10 14 13 10 9 13 16 15 13 11 9 10 11 12 16 17 13 15 17 18 20 20 20 18 17 15 13 12
1 1 1 2 1 2 3 3 3 2 3 1 1 3 1 3 1 2 4 6 6 6 6 6 6 8 11 11 10 9 12 11 11 9 8 6 8 6 11 15 16 16 17 19 18 19 20 20 20 20 19 17 14 12
2 3 3 5 3 4 2 2 2 2 3 3 2 1 2 2 3 3 6 6 6 6 6 7 11 9 10 11 9 9 10 8 6 8 6 7 11 14 14 16 17 18 20 24 25 24 22 22 22 20 19 17 14 13
2 2 3 3 3 0 2 2 1 2 2 2 1 2 3 2 3 4 5 4 4 4 6 7 8 8 10 10 11 10 7 6 5 6 11 19 20 20 18 19 19 20 20 21 22 21 20 18 18 17 15 14 13 13
3 3 2 3 1 2 1 2 2 3 3 3 3 4 2 2 4 3 2 1 2 4 6 6 8 7 7 7 11 10 10 12 12 13 15 19 20 21 21 20 19 18 19 19 18 19 17 17 16 15 15 14 13 12
2 1 2 3 2 2 2 2 3 3 3 3 2 2 2 1 2 3 2 1 3 5 4 5 6 12 11 11 13 15 14 15 16 16 19 21 22 22 20 19 20 20 20 20 18 17 16 16 16 15 15 15 13 11
Wind_Direction
263 258 241 237 223 237 228 202 189 168 164 168 171 184 184 184 186 207 160 190 250 113 65 110 192 185 167 164 150 156 141 167 185 201 200 192 247 180 95 75 173 184 196 205 231 243 235 359 266 264 6 61 22 26
275 253 228 228 208 179 187 163 160 164 165 163 169 179 173 185 190 201 142 232 233 34 102 86 71 50 35 23 137 165 119 168 173 215 145 83 130 79 146 176 174 179 29 24 21 51 83 46 78 57 43 76 73 79
114 113 138 153 145 147 147 149 155 166 179 175 179 174 169 174 167 195 162 180 123 121 83 53 35 40 53 55 98 158 149 107 105 350 93 97 146 172 185 144 125 172 193 117 180 109 102 107 89 72 72 80 87 95
106 106 108 126 131 140 139 140 138 137 155 164 174 176 161 158 181 195 166 174 143 116 91 70 74 57 73 81 74 57 117 140 138 117 87 85 98 59 74 116 71 39 190 136 98 130 123 96 96 102 94 94 94 93
108 114 119 114 124 130 143 133 124 129 135 149 152 152 146 166 169 141 162 354 174 178 117 112 83 63 80 95 105 113 128 151 155 157 130 101 106 97 101 114 92 13 13 355 60 133 87 117 120 119 110 108 109 112
116 112 119 119 118 122 128 124 120 112 124 137 149 153 161 155 143 159 79 52 107 117 131 94 94 93 88 93 100 119 128 149 132 106 92 65 197 268 178 76 87 84 23 10 113 72 93 112 115 121 122 121 114 111
119 114 112 116 118 120 116 121 110 115 127 131 140 145 152 164 176 261 135 141 120 90 109 125 118 60 83 130 129 120 238 63 149 110 76 106 161 244 358 96 131 107 97 105 115 112 111 137 127 123 124 126 123 121
112 115 120 122 127 119 115 120 108 107 118 124 125 133 138 128 112 91 100 128 32 83 70 88 99 133 232 139 96 293 135 147 49 41 136 139 118 320 86 118 127 120 118 104 133 18 130 124 126 130 136 140 135 131
112 118 119 118 121 121 124 109 101 101 107 114 115 109 108 31 81 96 113 99 44 346 112 122 146 128 205 84 119 67 26 111 73 70 351 331 157 64 129 159 160 156 155 132 115 113 127 132 139 149 150 149 136 128
114 113 110 107 107 110 113 106 96 88 91 84 119 49 36 54 115 58 223 55 27 51 37 82 91 135 137 140 52 107 301 157 154 138 200 31 83 98 132 148 152 144 138 142 134 143 147 153 154 160 159 140 133 133
115 104 100 100 100 100 102 110 105 79 79 83 67 69 112 43 339 32 44 89 133 103 94 119 132 127 165 130 120 8 87 296 189 138 191 161 145 150 122 120 139 136 149 160 162 157 161 155 150 148 140 138 143 150
110 108 99 90 86 90 96 108 50 55 44 97 111 115 57 30 37 77 56 15 130 103 149 132 132 113 66 346 107 203 97 272 68 65 193 187 106 143 132 134 124 124 130 116 132 134 131 132 135 133 131 122 107 107
104 97 91 85 76 79 93 102 103 100 114 101 56 49 268 1 88 168 135 142 105 106 137 120 70 35 125 57 41 71 139 80 149 204 172 57 125 134 135 123 112 112 132 116 117 121 120 117 119 120 107 112 116 114
97 91 88 78 61 60 74 78 59 37 47 64 87 61 5 76 55 23 41 76 83 123 95 94 77 80 101 57 275 103 34 242 246 217 91 133 148 126 122 119 114 97 84 101 104 108 107 104 100 106 114 122 123 124
86 77 71 52 40 40 52 63 58 53 58 48 24 55 61 61 54 35 37 96 103 105 117 133 111 99 84 107 131 125 178 221 269 60 72 121 127 125 119 112 128 132 116 111 116 110 107 111 110 109 118 127 130 131
61 53 30 30 32 32 47 49 44 56 54 52 34 90 111 100 89 17 48 100 127 147 168 129 126 87 169 136 164 209 231 46 80 72 102 126 130 129 125 131 142 138 129 120 122 127 126 127 133 127 122 125 129 134
71 54 18 16 28 35 48 54 39 51 52 47 50 316 83 70 72 20 354 20 355 59 28 89 97 48 135 212 122 25 39 68 104 107 115 125 138 128 133 142 136 129 127 132 133 136 139 132 129 133 133 139 137 138
74 40 22 19 33 33 33 33 58 59 60 32 72 36 51 41 73 3 343 335 31 36 24 44 102 66 110 130 99 98 108 89 82 110 112 124 121 130 141 144 144 141 138 140 140 139 138 148 152 149 144 144 141 144
51 28 21 28 30 46 53 39 24 81 54 62 75 64 69 69 41 355 331 327 39 68 99 152 158 83 68 56 103 108 137 150 138 112 96 110 128 136 133 138 142 145 147 150 154 155 159 166 153 149 150 156 148 157
31 24 29 32 23 74 66 43 38 54 75 61 28 38 60 71 326 320 312 7 13 20 71 46 46 45 61 66 74 108 114 118 130 132 131 126 129 135 142 152 152 152 156 159 159 159 168 140 142 148 160 156 149 147
27 6 18 24 44 49 53 25 69 73 106 73 30 46 48 301 29 356 55 349 313 3 72 77 95 49 87 92 112 126 135 156 165 151 157 153 162 155 163 149 146 166 164 162 156 163 151 145 144 138 130 118 112 103
1 11 7 25 49 58 55 21 53 53 65 107 168 133 123 114 107 52 358 104 179 59 53 100 134 150 130 106 89 99 114 96 98 95 117 135 154 157 152 152 168 167 163 158 165 160 153 145 134 135 118 113 110 117
8 9 33 25 67 51 58 338 87 51 122 151 192 134 118 112 51 252 215 206 108 55 114 111 92 86 108 107 103 104 122 135 119 112 139 145 144 145 144 162 171 164 158 166 159 155 136 133 132 129 130 124 119 118
19 40 27 30 30 68 312 357 213 98 26 226 136 100 91 106 171 231 249 111 89 151 152 139 134 127 125 152 128 112 112 94 90 108 120 126 136 143 151 163 163 167 164 153 144 133 136 137 139 142 140 138 146 144
10 25 352 56 358 94 86 67 343 68 104 156 78 68 93 251 230 238 224 110 139 143 143 165 169 169 146 117 95 104 166 150 136 136 143 146 139 137 148 157 166 164 152 143 140 143 145 146 153 151 152 148 145 138
44 15 6 29 13 32 62 93 115 198 103 109 115 53 69 256 263 242 82 95 121 130 151 178 179 181 159 135 133 139 142 130 124 128 129 141 155 164 161 165 159 139 159 159 152 152 151 158 149 149 140 139 142 138
12 101 119 46 333 45 66 16 36 279 220 220 162 162 204 236 233 85 124 89 122 98 84 69 57 59 122 107 102 101 109 81 134 125 111 95 97 159 179 176 160 154 165 168 160 156 157 147 144 136 132 136 144 149
275 163 214 167 235 340 302 306 199 228 231 240 153 195 240 265 33 52 64 115 125 136 133 120 75 78 108 117 127 124 117 115 115 109 102 96 86 85 100 128 148 156 153 153 152 154 151 148 143 142 142 138 131 137
241 151 188 182 232 210 236 227 238 223 1 277 221 214 204 64 75 124 144 150 153 161 158 152 131 120 114 127 143 150 156 156 150 156 156 140 141 115 123 122 125 127 129 131 135 141 142 143 141 137 135 133 133 132
232 161 232 175 201 233 208 346 30 38 344 10 321 249 183 138 138 144 161 171 182 193 189 172 161 171 160 160 156 160 176 185 190 198 188 165 151 153 143 136 133 132 134 135 133 131 142 142 139 133 132 134 137 137
44 206 246 245 240 186 76 58 298 270 256 261 238 258 285 79 164 192 210 216 207 178 173 174 176 192 178 177 170 170 161 165 161 97 134 145 145 149 147 146 145 150 152 149 147 147 140 133 136 139 141 142 148 146
185 239 270 252 124 75 254 253 261 252 206 212 242 207 184 229 237 132 55 83 154 189 214 220 191 177 185 180 183 183 171 168 155 142 137 142 144 147 146 149 152 146 139 138 140 139 141 140 141 142 143 145 145 151
273 277 267 280 235 228 131 268 223 257 200 237 231 198 202 300 299 88 65 114 31 24 221 155 132 146 147 138 128 127 136 144 147 149 151 152 153 152 146 143 143 141 138 136 138 140 140 140 139 141 144 149 152 151